Flag for South Africa Weather past 2 weeks in Stellenbosch, South Africa

Now
73 °F

Scattered clouds.


Feels Like: 77 °F
Forecast: 49 / 78 °F
Wind: 13 mph from South

Location: Cape Town International Airport

Current Time: Dec 19, 2014 at 3:23:57 PM

Latest Report: Dec 19, 2014 at 2:00 PM


Visibility: N/A

Pressure: 30.01 "Hg

Humidity: 50%

Dew point: 54 °F

Location of StellenboschLocation

Historic Weather in Stellenbosch — Graph

°F

Stellenbosch temperature yesterday

Maximum temperature yesterday: 77 °F (at 12:00 PM)
Minimum temperature yesterday: 63 °F (at 5:00 AM)
Average temperature yesterday: 69 °F

Past Weeks' High & Low Weather Summary

 TemperatureHumidityPressure
High86 °F (Dec 7, 12:00 PM)94% (Dec 9, 2:00 AM)30.12 "Hg (Dec 9, 2:00 AM)
Low59 °F (Dec 8, 5:00 AM)37% (Dec 13, 12:00 PM)29.77 "Hg (Dec 8, 7:00 PM)
Average68 °F65%29.97 "Hg
* Reported Dec 4 2:00 PM — Dec 19 2:00 PM, Stellenbosch, Weather by CustomWeather, © 2014

Note: Actual official high and low records may vary slightly from our data, if they occured in-between our weather recording intervals... More about our weather records

Advertising

Stellenbosch weather history for previous 24 hours

 ConditionsComfort  
Time TempWeatherWind HumidityBarometerVisibility
2:00 PM
Dec 19
73 °FScattered clouds.13 mph50%30.01 "HgN/A
1:00 PM72 °FPassing clouds.15 mph50%30.01 "HgN/A
12:00 PM73 °FPassing clouds.13 mph47%30.01 "HgN/A
11:00 AM73 °FPassing clouds.8 mph50%30.01 "HgN/A
10:00 AM72 °FPassing clouds.12 mph50%30.01 "HgN/A
9:00 AM70 °FScattered clouds.13 mph53%30.01 "HgN/A
8:00 AM68 °FPassing clouds.14 mph60%30.01 "HgN/A
7:00 AM64 °FPassing clouds.9 mph78%29.98 "HgN/A
6:00 AM61 °FSunny.7 mph83%29.98 "Hg10 mi
5:00 AM61 °FSunny.7 mph83%29.95 "Hg10 mi
4:00 AM61 °FClear.7 mph77%29.95 "Hg10 mi
3:00 AM63 °FClear.7 mph77%29.98 "Hg10 mi
2:00 AM63 °FClear.7 mph73%29.98 "Hg10 mi
1:00 AM63 °FClear.7 mph73%29.98 "Hg10 mi
12:00 AM64 °FClear.8 mph68%30.01 "Hg10 mi
11:00 PM
Dec 18
64 °FClear.9 mph73%30.01 "Hg10 mi
10:00 PM66 °FClear.14 mph68%30.01 "Hg10 mi
9:00 PM66 °FClear.12 mph68%30.01 "Hg10 mi
8:00 PM66 °FClear.17 mph68%29.98 "Hg10 mi
7:00 PM70 °FClear.20 mph60%29.98 "Hg10 mi
6:00 PM72 °FPassing clouds.20 mph61%29.95 "HgN/A
5:00 PM73 °FPassing clouds.23 mph61%29.95 "HgN/A
4:00 PM75 °FSunny.18 mph61%29.95 "Hg10 mi
3:00 PM75 °FSunny.17 mph57%29.95 "Hg10 mi
Weather by CustomWeather, © 2014

See weather overviewHow to use our weather pages